Location: LDNL
(36.4545°S, 141.6685°E)
Time: 18:56:38
(UTC+10:00)

Tiros 1 despin weight - Pass Details

Date: 27 January 2022
Orbit: 592 x 639 km, 48.2° (Epoch: 28 May)

Event Time Altitude Azimuth Distance (km) Brightness Sun altitude
Exits shadow 04:31:00 30° 33° (NNE) 1,125 ? -22.6°
Maximum altitude 04:31:27 31° 45° (NE) 1,109 ? -22.5°
Drops below altitude 10° 04:35:28 10° 106° (ESE) 1,989 ? -21.9°
Sets 04:37:58 0° 116° (ESE) 2,891 ? -21.6°
